^^
Station Historical Data
Daily Summary for June 12, 2017 Units:  English    Metric   Both
« Previous Day
Next Day »
Daily Weekly Monthly Yearly Custom
  High: Low: Average:
Temperature: 91.7 °F 66.4 °F 80.3 °F
Dew Point: 67.2 °F 61.0 °F 63.6 °F
Humidity: 84 % 37 % 59 %
Wind Speed: 6.0 mph 0.0 mph 1.1 mph
Wind Gust: 17.3 mph - -
Wind:- - WSW
Pressure: 30.08 in 29.95 in -
Precipitation: 0.00 in    
Historical Graphs
 
 
Tabular Data for June 12, 2017
Time Temperature Dew Point Pressure Wind Wind Speed Wind Gust Humidity Rainfall Rate (Hourly) solar Conditions
00:04 74.2 °F 63.8 °F 30.02 in Calm     70 % 0.00 in 0.0 W/m2 CLR
00:09 73.9 °F 63.9 °F 30.02 in Calm     71 % 0.00 in 0.0 W/m2 CLR
00:14 73.8 °F 63.8 °F 30.02 in Calm     71 % 0.00 in 0.0 W/m2 CLR
00:19 73.7 °F 63.7 °F 30.02 in Calm     71 % 0.00 in 0.0 W/m2 CLR
00:24 73.5 °F 63.9 °F 30.02 in Calm     72 % 0.00 in 0.0 W/m2 CLR
00:29 73.5 °F 63.9 °F 30.02 in Calm     72 % 0.00 in 0.0 W/m2 CLR
00:34 73.7 °F 63.7 °F 30.03 in Calm     71 % 0.00 in 0.0 W/m2 CLR
00:40 73.8 °F 63.8 °F 30.03 in Calm     71 % 0.00 in 0.0 W/m2 CLR
00:45 74.1 °F 63.7 °F 30.03 in Calm     70 % 0.00 in 0.0 W/m2 CLR
00:50 74.2 °F 63.8 °F 30.02 in WSW 1.4 mph 3.5 mph 70 % 0.00 in 0.0 W/m2 CLR
00:55 74.4 °F 63.6 °F 30.02 in Calm   3.0 mph 69 % 0.00 in 0.0 W/m2 CLR
01:00 74.5 °F 63.7 °F 30.02 in Calm   3.5 mph 69 % 0.00 in 0.0 W/m2 CLR
01:05 74.5 °F 63.2 °F 30.02 in WSW 1.1 mph 5.8 mph 68 % 0.00 in 0.0 W/m2 CLR
01:10 74.5 °F 63.2 °F 30.02 in Calm   4.0 mph 68 % 0.00 in 0.0 W/m2 CLR
01:15 74.5 °F 63.2 °F 30.02 in WSW 0.3 mph 3.5 mph 68 % 0.00 in 0.0 W/m2 CLR
01:20 74.5 °F 63.2 °F 30.02 in SW 0.3 mph 3.5 mph 68 % 0.00 in 0.0 W/m2 CLR
01:25 74.4 °F 63.1 °F 30.02 in Calm   3.5 mph 68 % 0.00 in 0.0 W/m2 CLR
01:30 74.3 °F 63.1 °F 30.02 in Calm   2.3 mph 68 % 0.00 in 0.0 W/m2 CLR
01:35 73.9 °F 63.1 °F 30.02 in Calm     69 % 0.00 in 0.0 W/m2 CLR
01:40 73.5 °F 62.7 °F 30.01 in Calm     69 % 0.00 in 0.0 W/m2 CLR
01:45 73.3 °F 62.9 °F 30.01 in Calm     70 % 0.00 in 0.0 W/m2 CLR
01:50 73.3 °F 62.9 °F 30.02 in Calm     70 % 0.00 in 0.0 W/m2 CLR
01:55 73.4 °F 63.0 °F 30.02 in Calm   1.2 mph 70 % 0.00 in 0.0 W/m2 CLR
02:00 73.3 °F 62.9 °F 30.02 in Calm   1.2 mph 70 % 0.00 in 0.0 W/m2 CLR
02:05 72.9 °F 62.5 °F 30.02 in Calm     70 % 0.00 in 0.0 W/m2 CLR
02:10 72.3 °F 62.4 °F 30.02 in Calm     71 % 0.00 in 0.0 W/m2 CLR
02:15 72.3 °F 62.8 °F 30.02 in Calm     72 % 0.00 in 0.0 W/m2 CLR
02:20 72.1 °F 62.6 °F 30.02 in Calm     72 % 0.00 in 0.0 W/m2 CLR
02:25 72.2 °F 62.7 °F 30.02 in Calm     72 % 0.00 in 0.0 W/m2 CLR
02:30 72.1 °F 63.0 °F 30.02 in Calm     73 % 0.00 in 0.0 W/m2 CLR
02:35 72.2 °F 62.7 °F 30.03 in Calm     72 % 0.00 in 0.0 W/m2 CLR
02:37 72.2 °F 62.7 °F 30.03 in Calm     72 % 0.00 in 0.0 W/m2 CLR
02:42 72.2 °F 62.7 °F 30.02 in SW 0.1 mph 1.2 mph 72 % 0.00 in 0.0 W/m2 CLR
02:47 72.2 °F 62.7 °F 30.02 in SW 0.6 mph 3.5 mph 72 % 0.00 in 0.0 W/m2 CLR
02:52 72.2 °F 62.7 °F 30.02 in Calm   3.5 mph 72 % 0.00 in 0.0 W/m2 CLR
02:57 72.1 °F 62.6 °F 30.02 in Calm   3.5 mph 72 % 0.00 in 0.0 W/m2 CLR
03:02 72.0 °F 62.5 °F 30.03 in Calm   2.3 mph 72 % 0.00 in 0.0 W/m2 CLR
03:07 71.5 °F 62.4 °F 30.03 in Calm   2.3 mph 73 % 0.00 in 0.0 W/m2 CLR
03:12 71.1 °F 62.4 °F 30.03 in Calm     74 % 0.00 in 0.0 W/m2 CLR
03:17 70.7 °F 62.4 °F 30.03 in Calm     75 % 0.00 in 0.0 W/m2 CLR
03:22 70.0 °F 62.1 °F 30.03 in Calm     76 % 0.00 in 0.0 W/m2 CLR
03:23 69.9 °F 62.0 °F 30.03 in Calm     76 % 0.00 in 0.0 W/m2 CLR
03:28 69.6 °F 62.1 °F 30.03 in Calm     77 % 0.00 in 0.0 W/m2 CLR
03:33 69.5 °F 62.0 °F 30.03 in Calm     77 % 0.00 in 0.0 W/m2 CLR
03:38 69.4 °F 61.9 °F 30.03 in Calm     77 % 0.00 in 0.0 W/m2 CLR
03:43 69.3 °F 62.1 °F 30.03 in Calm     78 % 0.00 in 0.0 W/m2 CLR
03:45 69.2 °F 62.0 °F 30.04 in Calm     78 % 0.00 in 0.0 W/m2 CLR
03:50 69.1 °F 62.3 °F 30.04 in Calm     79 % 0.00 in 0.0 W/m2 CLR
03:55 68.9 °F 62.1 °F 30.04 in Calm     79 % 0.00 in 0.0 W/m2 CLR
04:00 68.7 °F 62.3 °F 30.04 in Calm     80 % 0.00 in 0.0 W/m2 CLR
04:05 68.6 °F 62.2 °F 30.04 in Calm     80 % 0.00 in 0.0 W/m2 CLR
04:10 68.4 °F 62.0 °F 30.05 in Calm     80 % 0.00 in 0.0 W/m2 CLR
04:15 68.2 °F 61.8 °F 30.05 in Calm     80 % 0.00 in 0.0 W/m2 CLR
04:20 68.3 °F 62.2 °F 30.05 in Calm     81 % 0.00 in 0.0 W/m2 CLR
04:25 68.2 °F 61.8 °F 30.05 in Calm     80 % 0.00 in 0.0 W/m2 CLR
04:30 67.9 °F 61.5 °F 30.05 in Calm     80 % 0.00 in 0.0 W/m2 CLR
04:35 67.8 °F 61.8 °F 30.05 in Calm     81 % 0.00 in 0.0 W/m2 CLR
04:41 67.4 °F 61.4 °F 30.05 in Calm     81 % 0.00 in 0.0 W/m2 CLR
04:46 67.1 °F 61.4 °F 30.06 in Calm     82 % 0.00 in 0.0 W/m2 CLR
04:51 66.8 °F 61.5 °F 30.05 in Calm     83 % 0.00 in 0.0 W/m2 CLR
04:56 66.7 °F 61.4 °F 30.05 in Calm     83 % 0.00 in 0.0 W/m2 CLR
05:01 66.5 °F 61.5 °F 30.06 in Calm     84 % 0.00 in 0.0 W/m2 CLR
05:06 66.4 °F 61.4 °F 30.06 in Calm     84 % 0.00 in 0.0 W/m2 CLR
05:11 66.6 °F 61.6 °F 30.06 in Calm     84 % 0.00 in 0.0 W/m2 CLR
05:16 66.5 °F 61.5 °F 30.06 in Calm     84 % 0.00 in 0.0 W/m2 CLR
05:21 66.6 °F 61.6 °F 30.06 in Calm     84 % 0.00 in 0.0 W/m2 CLR
05:26 66.6 °F 61.6 °F 30.06 in Calm     84 % 0.00 in 0.0 W/m2 CLR
05:31 66.7 °F 61.4 °F 30.06 in Calm     83 % 0.00 in 0.0 W/m2 CLR
05:36 66.7 °F 61.4 °F 30.07 in Calm     83 % 0.00 in 5.0 W/m2 CLR
05:41 66.9 °F 61.6 °F 30.07 in Calm     83 % 0.00 in 7.0 W/m2 CLR
05:46 67.3 °F 62.0 °F 30.07 in Calm     83 % 0.00 in 9.0 W/m2 CLR
05:51 67.5 °F 61.8 °F 30.07 in Calm     82 % 0.00 in 11.0 W/m2 CLR
05:56 67.5 °F 61.8 °F 30.07 in Calm     82 % 0.00 in 12.0 W/m2 CLR
06:01 67.5 °F 61.8 °F 30.07 in Calm     82 % 0.00 in 14.0 W/m2 CLR
06:06 67.6 °F 61.9 °F 30.07 in Calm     82 % 0.00 in 16.0 W/m2 CLR
06:11 67.6 °F 61.9 °F 30.07 in Calm     82 % 0.00 in 18.0 W/m2 CLR
06:16 67.7 °F 62.0 °F 30.07 in Calm     82 % 0.00 in 19.0 W/m2 CLR
06:21 67.5 °F 61.8 °F 30.07 in Calm     82 % 0.00 in 21.0 W/m2 CLR
06:26 67.7 °F 62.0 °F 30.07 in Calm     82 % 0.00 in 25.0 W/m2 CLR
06:31 67.9 °F 62.2 °F 30.08 in Calm     82 % 0.00 in 25.0 W/m2 CLR
06:36 68.1 °F 62.4 °F 30.08 in Calm     82 % 0.00 in 28.0 W/m2 CLR
06:41 68.3 °F 62.2 °F 30.08 in Calm   1.2 mph 81 % 0.00 in 28.0 W/m2 CLR
06:46 68.7 °F 62.6 °F 30.08 in Calm   1.2 mph 81 % 0.00 in 30.0 W/m2 CLR
06:51 69.0 °F 62.6 °F 30.08 in Calm     80 % 0.00 in 32.0 W/m2 CLR
06:56 69.3 °F 62.9 °F 30.08 in Calm     80 % 0.00 in 42.0 W/m2 CLR
07:01 69.6 °F 62.8 °F 30.08 in Calm     79 % 0.00 in 33.0 W/m2 CLR
07:06 70.0 °F 63.2 °F 30.08 in Calm     79 % 0.00 in 40.0 W/m2 CLR
07:11 70.2 °F 63.0 °F 30.08 in WSW 0.8 mph 1.2 mph 78 % 0.00 in 37.0 W/m2 CLR
07:16 70.6 °F 63.0 °F 30.08 in Calm   3.5 mph 77 % 0.00 in 37.0 W/m2 CLR
07:22 71.1 °F 63.5 °F 30.07 in Calm   3.5 mph 77 % 0.00 in 39.0 W/m2 CLR
07:27 71.5 °F 63.5 °F 30.07 in West 0.6 mph 3.5 mph 76 % 0.00 in 39.0 W/m2 CLR
07:32 71.8 °F 63.4 °F 30.07 in West 1.5 mph 5.8 mph 75 % 0.00 in 40.0 W/m2 CLR
07:37 72.2 °F 63.4 °F 30.07 in Calm   5.8 mph 74 % 0.00 in 40.0 W/m2 CLR
07:42 72.5 °F 63.7 °F 30.07 in Calm   5.8 mph 74 % 0.00 in 42.0 W/m2 CLR
07:47 72.7 °F 63.5 °F 30.08 in WSW 0.1 mph 5.8 mph 73 % 0.00 in 42.0 W/m2 CLR
07:52 73.0 °F 63.4 °F 30.08 in Calm   5.8 mph 72 % 0.00 in 44.0 W/m2 CLR
07:57 73.2 °F 63.2 °F 30.08 in SW 2.5 mph 6.9 mph 71 % 0.00 in 46.0 W/m2 CLR
08:03 73.4 °F 63.4 °F 30.08 in West 2.9 mph 8.1 mph 71 % 0.00 in 46.0 W/m2 CLR
08:08 73.8 °F 63.8 °F 30.08 in Calm   8.1 mph 71 % 0.00 in 47.0 W/m2 CLR
08:13 74.2 °F 63.8 °F 30.08 in West 0.7 mph 3.5 mph 70 % 0.00 in 49.0 W/m2 CLR
08:18 74.5 °F 64.1 °F 30.08 in Calm   5.8 mph 70 % 0.00 in 49.0 W/m2 CLR
08:23 74.7 °F 63.9 °F 30.08 in NW 2.0 mph 6.9 mph 69 % 0.00 in 53.0 W/m2 CLR
08:28 74.9 °F 64.0 °F 30.08 in WSW 3.5 mph 8.1 mph 69 % 0.00 in 53.0 W/m2 CLR
08:33 75.1 °F 64.2 °F 30.08 in WNW 1.6 mph 8.1 mph 69 % 0.00 in 54.0 W/m2 CLR
08:38 75.5 °F 64.6 °F 30.08 in WNW 3.6 mph 9.2 mph 69 % 0.00 in 54.0 W/m2 CLR
08:43 76.0 °F 64.7 °F 30.07 in West 2.6 mph 9.2 mph 68 % 0.00 in 56.0 W/m2 CLR
08:48 76.3 °F 64.5 °F 30.07 in SW 2.0 mph 9.2 mph 67 % 0.00 in 58.0 W/m2 CLR
08:53 76.7 °F 64.9 °F 30.08 in West 0.3 mph 9.2 mph 67 % 0.00 in 60.0 W/m2 CLR
08:58 77.2 °F 65.4 °F 30.08 in WNW 0.1 mph 9.2 mph 67 % 0.00 in 79.0 W/m2 CLR
09:03 77.5 °F 65.2 °F 30.08 in West 1.0 mph 8.1 mph 66 % 0.00 in 72.0 W/m2 CLR
09:08 77.6 °F 64.9 °F 30.08 in Calm   9.2 mph 65 % 0.00 in 79.0 W/m2 CLR
09:13 78.0 °F 65.3 °F 30.08 in WSW 0.9 mph 9.2 mph 65 % 0.00 in 415.0 W/m2 CLR
09:18 78.4 °F 65.2 °F 30.07 in West 0.4 mph 8.1 mph 64 % 0.00 in 603.0 W/m2 CLR
09:23 78.5 °F 65.3 °F 30.08 in Calm   9.2 mph 64 % 0.00 in 619.0 W/m2 CLR
09:28 79.2 °F 65.5 °F 30.07 in WNW 0.9 mph 9.2 mph 63 % 0.00 in 633.0 W/m2 CLR
09:33 79.2 °F 65.5 °F 30.07 in WSW 0.3 mph 9.2 mph 63 % 0.00 in 647.0 W/m2 CLR
09:38 79.7 °F 65.1 °F 30.07 in Calm   9.2 mph 61 % 0.00 in 664.0 W/m2 CLR
09:43 80.1 °F 65.4 °F 30.07 in WSW 1.8 mph 8.1 mph 61 % 0.00 in 679.0 W/m2 CLR
09:48 80.7 °F 66.0 °F 30.06 in West 4.1 mph 9.2 mph 61 % 0.00 in 689.0 W/m2 CLR
09:53 80.9 °F 65.7 °F 30.07 in SSW 3.2 mph 9.2 mph 60 % 0.00 in 701.0 W/m2 CLR
09:58 80.9 °F 65.7 °F 30.06 in WSW 4.4 mph 9.2 mph 60 % 0.00 in 714.0 W/m2 CLR
10:03 81.2 °F 66.0 °F 30.06 in SW 5.2 mph 8.1 mph 60 % 0.00 in 728.0 W/m2 CLR
10:08 81.6 °F 65.9 °F 30.06 in South 2.3 mph 9.2 mph 59 % 0.00 in 737.0 W/m2 CLR
10:13 81.8 °F 66.1 °F 30.06 in SSW 0.2 mph 9.2 mph 59 % 0.00 in 751.0 W/m2 CLR
10:18 82.1 °F 65.9 °F 30.06 in West 3.4 mph 6.9 mph 58 % 0.00 in 759.0 W/m2 CLR
10:23 82.4 °F 66.1 °F 30.06 in SSW 3.0 mph 9.2 mph 58 % 0.00 in 766.0 W/m2 CLR
10:28 82.8 °F 66.5 °F 30.05 in West 0.2 mph 9.2 mph 58 % 0.00 in 777.0 W/m2 CLR
10:34 83.0 °F 66.7 °F 30.05 in SW 3.0 mph 9.2 mph 58 % 0.00 in 786.0 W/m2 CLR
10:39 83.0 °F 66.2 °F 30.05 in SSW 4.9 mph 9.2 mph 57 % 0.00 in 800.0 W/m2 CLR
10:44 82.8 °F 66.5 °F 30.05 in West 1.7 mph 10.4 mph 58 % 0.00 in 810.0 W/m2 CLR
10:49 83.2 °F 66.9 °F 30.05 in SSW 4.8 mph 10.4 mph 58 % 0.00 in 819.0 W/m2 CLR
10:54 83.5 °F 67.2 °F 30.05 in SSW 5.5 mph 10.4 mph 58 % 0.00 in 828.0 W/m2 CLR
10:59 83.7 °F 66.3 °F 30.05 in SSW 5.9 mph 9.2 mph 56 % 0.00 in 837.0 W/m2 CLR
11:04 84.0 °F 66.6 °F 30.05 in WSW 4.4 mph 9.2 mph 56 % 0.00 in 847.0 W/m2 CLR
11:09 83.9 °F 66.5 °F 30.05 in Calm   11.5 mph 56 % 0.00 in 858.0 W/m2 CLR
11:14 84.5 °F 67.1 °F 30.05 in SW 1.3 mph 11.5 mph 56 % 0.00 in 865.0 W/m2 CLR
11:19 85.7 °F 67.1 °F 30.05 in WNW 0.9 mph 11.5 mph 54 % 0.00 in 870.0 W/m2 CLR
11:24 85.7 °F 66.6 °F 30.05 in WSW 2.1 mph 9.2 mph 53 % 0.00 in 886.0 W/m2 CLR
11:29 85.5 °F 66.4 °F 30.05 in SW 2.0 mph 10.4 mph 53 % 0.00 in 896.0 W/m2 CLR
11:34 86.2 °F 67.1 °F 30.04 in SSW 2.0 mph 10.4 mph 53 % 0.00 in 898.0 W/m2 CLR
11:39 86.3 °F 66.6 °F 30.04 in West 2.4 mph 8.1 mph 52 % 0.00 in 896.0 W/m2 CLR
11:44 87.2 °F 65.7 °F 30.04 in NW 3.4 mph 11.5 mph 49 % 0.00 in 914.0 W/m2 CLR
11:49 87.5 °F 66.6 °F 30.04 in North 4.1 mph 11.5 mph 50 % 0.00 in 918.0 W/m2 CLR
11:54 86.9 °F 65.4 °F 30.04 in SW 2.7 mph 10.4 mph 49 % 0.00 in 926.0 W/m2 CLR
11:55 86.7 °F 65.8 °F 30.04 in SSW 0.1 mph 10.4 mph 50 % 0.00 in 923.0 W/m2 CLR
12:00 87.1 °F 66.2 °F 30.04 in WSW 3.9 mph 10.4 mph 50 % 0.00 in 926.0 W/m2 CLR
12:05 87.5 °F 66.0 °F 30.04 in Calm   10.4 mph 49 % 0.00 in 933.0 W/m2 CLR
12:10 87.8 °F 65.7 °F 30.04 in WNW 4.2 mph 10.4 mph 48 % 0.00 in 940.0 W/m2 CLR
12:15 88.8 °F 66.0 °F 30.03 in North 0.6 mph 10.4 mph 47 % 0.00 in 947.0 W/m2 CLR
12:20 88.5 °F 65.7 °F 30.03 in NW 2.2 mph 10.4 mph 47 % 0.00 in 972.0 W/m2 CLR
12:26 88.9 °F 66.1 °F 30.03 in SW 3.7 mph 9.2 mph 47 % 0.00 in 977.0 W/m2 CLR
12:31 88.3 °F 65.5 °F 30.03 in SW 1.0 mph 9.2 mph 47 % 0.00 in 1009.0 W/m2 CLR
12:36 89.4 °F 65.9 °F 30.03 in West 1.5 mph 8.1 mph 46 % 0.00 in 1035.0 W/m2 CLR
12:41 88.7 °F 65.9 °F 30.03 in SW 1.1 mph 9.2 mph 47 % 0.00 in 1065.0 W/m2 CLR
12:43 88.7 °F 64.6 °F 30.03 in West 0.2 mph 9.2 mph 45 % 0.00 in 1065.0 W/m2 CLR
12:48 89.2 °F 63.8 °F 30.03 in NW 5.4 mph 11.5 mph 43 % 0.00 in 1044.0 W/m2 CLR
12:49 89.3 °F 63.9 °F 30.03 in North 5.7 mph 11.5 mph 43 % 0.00 in 1051.0 W/m2 CLR
12:54 88.8 °F 64.1 °F 30.03 in Calm   11.5 mph 44 % 0.00 in 229.0 W/m2 CLR
12:59 88.4 °F 63.1 °F 30.03 in NW 4.7 mph 11.5 mph 43 % 0.00 in 269.0 W/m2 CLR
13:04 88.5 °F 64.4 °F 30.03 in NW 0.7 mph 10.4 mph 45 % 0.00 in 1097.0 W/m2 FEW
13:09 88.5 °F 63.8 °F 30.03 in NW 2.2 mph 10.4 mph 44 % 0.00 in 271.0 W/m2 FEW
13:14 89.0 °F 62.2 °F 30.02 in WSW 3.4 mph 9.2 mph 41 % 0.00 in 1032.0 W/m2 FEW
13:19 88.4 °F 61.0 °F 30.02 in Calm   9.2 mph 40 % 0.00 in 881.0 W/m2 FEW
13:24 89.0 °F 63.6 °F 30.02 in WSW 1.2 mph 9.2 mph 43 % 0.00 in 988.0 W/m2 FEW
13:29 89.8 °F 63.6 °F 30.02 in West 3.0 mph 8.1 mph 42 % 0.00 in 962.0 W/m2 FEW
13:34 89.4 °F 64.6 °F 30.02 in SSW 3.8 mph 8.1 mph 44 % 0.00 in 976.0 W/m2 FEW
13:39 89.3 °F 64.5 °F 30.01 in SSW 2.5 mph 8.1 mph 44 % 0.00 in 965.0 W/m2 FEW
13:44 90.1 °F 62.5 °F 30.01 in NW 2.3 mph 10.4 mph 40 % 0.00 in 958.0 W/m2 FEW
13:49 90.8 °F 63.9 °F 30.01 in WSW 1.6 mph 10.4 mph 41 % 0.00 in 960.0 W/m2 FEW
13:54 90.8 °F 63.9 °F 30.01 in West 3.0 mph 10.4 mph 41 % 0.00 in 969.0 W/m2 FEW
13:59 90.0 °F 63.1 °F 30.01 in SW 1.6 mph 11.5 mph 41 % 0.00 in 974.0 W/m2 FEW
14:04 90.9 °F 61.0 °F 30.01 in West 0.8 mph 11.5 mph 37 % 0.00 in 976.0 W/m2 FEW
14:09 90.7 °F 63.8 °F 30.00 in West 3.2 mph 11.5 mph 41 % 0.00 in 947.0 W/m2 FEW
14:14 90.6 °F 63.0 °F 30.00 in WNW 4.3 mph 11.5 mph 40 % 0.00 in 202.0 W/m2 FEW
14:19 90.0 °F 63.1 °F 30.00 in SSW 2.0 mph 11.5 mph 41 % 0.00 in 990.0 W/m2 FEW
14:24 90.3 °F 61.2 °F 30.00 in SW 4.0 mph 11.5 mph 38 % 0.00 in 962.0 W/m2 FEW
14:29 90.0 °F 62.4 °F 30.00 in SW 5.1 mph 11.5 mph 40 % 0.00 in 874.0 W/m2 FEW
14:34 90.5 °F 62.9 °F 29.99 in SSW 2.5 mph 11.5 mph 40 % 0.00 in 960.0 W/m2 FEW
14:37 90.4 °F 62.8 °F 29.99 in WNW 1.8 mph 11.5 mph 40 % 0.00 in 1009.0 W/m2 FEW
14:42 89.6 °F 63.5 °F 29.99 in NW 1.7 mph 10.4 mph 42 % 0.00 in 807.0 W/m2 FEW
14:47 90.4 °F 62.8 °F 29.99 in WNW 1.2 mph 12.7 mph 40 % 0.00 in 933.0 W/m2 FEW
14:52 90.2 °F 62.6 °F 29.99 in West 2.7 mph 12.7 mph 40 % 0.00 in 846.0 W/m2 FEW
14:57 90.8 °F 62.4 °F 29.98 in NW 4.1 mph 11.5 mph 39 % 0.00 in 861.0 W/m2 FEW
15:02 90.5 °F 62.2 °F 29.98 in WSW 1.6 mph 11.5 mph 39 % 0.00 in 849.0 W/m2 CLR
15:03 90.3 °F 62.7 °F 29.98 in WSW 2.2 mph 11.5 mph 40 % 0.00 in 844.0 W/m2 CLR
15:08 90.4 °F 63.5 °F 29.98 in SW 5.3 mph 10.4 mph 41 % 0.00 in 821.0 W/m2 CLR
15:13 90.6 °F 63.0 °F 29.98 in SSW 0.3 mph 11.5 mph 40 % 0.00 in 821.0 W/m2 CLR
15:18 91.7 °F 63.2 °F 29.98 in WSW 6.0 mph 11.5 mph 39 % 0.00 in 809.0 W/m2 CLR
15:23 91.2 °F 62.8 °F 29.98 in SW 2.5 mph 17.3 mph 39 % 0.00 in 821.0 W/m2 CLR
15:29 90.6 °F 63.0 °F 29.98 in WSW 2.5 mph 17.3 mph 40 % 0.00 in 773.0 W/m2 CLR
15:34 90.5 °F 62.9 °F 29.97 in WSW 1.6 mph 13.8 mph 40 % 0.00 in 786.0 W/m2 CLR
15:39 90.5 °F 63.6 °F 29.97 in SW 5.0 mph 12.7 mph 41 % 0.00 in 773.0 W/m2 CLR
15:44 90.5 °F 62.9 °F 29.97 in SW 2.2 mph 12.7 mph 40 % 0.00 in 745.0 W/m2 CLR
15:49 90.4 °F 63.5 °F 29.98 in SW 0.6 mph 11.5 mph 41 % 0.00 in 749.0 W/m2 CLR
15:54 90.6 °F 63.0 °F 29.97 in SW 2.5 mph 12.7 mph 40 % 0.00 in 744.0 W/m2 CLR
15:59 90.3 °F 62.7 °F 29.97 in West 1.1 mph 12.7 mph 40 % 0.00 in 721.0 W/m2 CLR
16:04 90.7 °F 63.1 °F 29.97 in WNW 0.9 mph 12.7 mph 40 % 0.00 in 715.0 W/m2 CLR
16:09 90.5 °F 62.2 °F 29.97 in WSW 1.1 mph 12.7 mph 39 % 0.00 in 686.0 W/m2 CLR
16:14 90.4 °F 61.3 °F 29.97 in SW 4.9 mph 11.5 mph 38 % 0.00 in 687.0 W/m2 CLR
16:19 90.6 °F 62.3 °F 29.97 in SW 1.8 mph 10.4 mph 39 % 0.00 in 675.0 W/m2 CLR
16:24 90.8 °F 61.7 °F 29.97 in SW 3.6 mph 13.8 mph 38 % 0.00 in 664.0 W/m2 CLR
16:29 90.8 °F 61.7 °F 29.97 in NW 1.8 mph 13.8 mph 38 % 0.00 in 652.0 W/m2 CLR
16:34 91.0 °F 61.9 °F 29.96 in WNW 2.8 mph 13.8 mph 38 % 0.00 in 638.0 W/m2 CLR
16:39 90.9 °F 61.0 °F 29.96 in WNW 1.1 mph 11.5 mph 37 % 0.00 in 622.0 W/m2 CLR
16:44 91.1 °F 61.2 °F 29.96 in SW 5.3 mph 13.8 mph 37 % 0.00 in 596.0 W/m2 CLR
16:49 91.3 °F 61.4 °F 29.96 in WNW 0.4 mph 13.8 mph 37 % 0.00 in 601.0 W/m2 CLR
16:54 90.6 °F 61.5 °F 29.96 in West 3.7 mph 13.8 mph 38 % 0.00 in 580.0 W/m2 CLR
16:59 90.7 °F 61.6 °F 29.96 in SW 5.7 mph 9.2 mph 38 % 0.00 in 564.0 W/m2 CLR
17:04 90.1 °F 61.1 °F 29.96 in WSW 4.1 mph 11.5 mph 38 % 0.00 in 540.0 W/m2 FEW
17:09 90.1 °F 61.1 °F 29.96 in West 1.4 mph 11.5 mph 38 % 0.00 in 548.0 W/m2 FEW
17:14 89.9 °F 61.6 °F 29.95 in West 2.5 mph 10.4 mph 39 % 0.00 in 329.0 W/m2 FEW
17:19 90.2 °F 61.9 °F 29.95 in SSW 2.6 mph 13.8 mph 39 % 0.00 in 520.0 W/m2 FEW
17:24 90.2 °F 61.9 °F 29.95 in SW 5.3 mph 13.8 mph 39 % 0.00 in 450.0 W/m2 FEW
17:29 90.1 °F 61.8 °F 29.95 in WSW 1.2 mph 13.8 mph 39 % 0.00 in 466.0 W/m2 FEW
17:34 90.3 °F 61.2 °F 29.95 in WNW 3.0 mph 13.8 mph 38 % 0.00 in 445.0 W/m2 FEW
17:35 90.3 °F 61.2 °F 29.95 in SW 2.4 mph 13.8 mph 38 % 0.00 in 439.0 W/m2 FEW
17:40 90.0 °F 61.7 °F 29.95 in WSW 1.7 mph 13.8 mph 39 % 0.00 in 424.0 W/m2 FEW
17:45 90.2 °F 61.9 °F 29.95 in SSE 2.3 mph 9.2 mph 39 % 0.00 in 408.0 W/m2 FEW
17:50 90.0 °F 62.4 °F 29.95 in West 2.5 mph 9.2 mph 40 % 0.00 in 413.0 W/m2 FEW
17:55 90.1 °F 62.5 °F 29.95 in South 1.5 mph 9.2 mph 40 % 0.00 in 394.0 W/m2 FEW
18:00 90.0 °F 62.4 °F 29.95 in WSW 1.8 mph 11.5 mph 40 % 0.00 in 376.0 W/m2 FEW
18:05 90.2 °F 62.6 °F 29.95 in Calm   11.5 mph 40 % 0.00 in 373.0 W/m2 CLR
18:10 90.1 °F 62.5 °F 29.95 in WSW 3.0 mph 9.2 mph 40 % 0.00 in 345.0 W/m2 CLR
18:15 90.1 °F 62.5 °F 29.95 in WNW 2.9 mph 11.5 mph 40 % 0.00 in 327.0 W/m2 CLR
18:20 90.0 °F 62.4 °F 29.95 in WSW 1.3 mph 11.5 mph 40 % 0.00 in 299.0 W/m2 CLR
18:25 89.9 °F 62.3 °F 29.95 in SW 0.7 mph 11.5 mph 40 % 0.00 in 279.0 W/m2 CLR
18:30 89.8 °F 63.0 °F 29.95 in SW 0.9 mph 8.1 mph 41 % 0.00 in 267.0 W/m2 CLR
18:35 89.7 °F 62.2 °F 29.95 in NW 3.9 mph 10.4 mph 40 % 0.00 in 206.0 W/m2 CLR
18:40 89.2 °F 62.4 °F 29.95 in West 1.1 mph 10.4 mph 41 % 0.00 in 232.0 W/m2 CLR
18:45 89.2 °F 62.4 °F 29.95 in WNW 0.8 mph 8.1 mph 41 % 0.00 in 225.0 W/m2 CLR
18:50 89.2 °F 62.4 °F 29.95 in WSW 3.3 mph 8.1 mph 41 % 0.00 in 172.0 W/m2 CLR
18:55 89.0 °F 62.9 °F 29.95 in West 2.6 mph 8.1 mph 42 % 0.00 in 165.0 W/m2 CLR
19:00 88.9 °F 62.2 °F 29.96 in WNW 0.9 mph 8.1 mph 41 % 0.00 in 165.0 W/m2 CLR
19:05 88.8 °F 62.7 °F 29.96 in Calm   8.1 mph 42 % 0.00 in 114.0 W/m2 CLR
19:10 88.6 °F 62.6 °F 29.96 in WSW 0.3 mph 8.1 mph 42 % 0.00 in 70.0 W/m2 CLR
19:12 88.4 °F 63.1 °F 29.96 in WNW 0.3 mph 5.8 mph 43 % 0.00 in 49.0 W/m2 CLR
19:17 88.0 °F 62.7 °F 29.96 in Calm   3.5 mph 43 % 0.00 in 65.0 W/m2 CLR
19:18 88.0 °F 62.7 °F 29.95 in Calm   3.5 mph 43 % 0.00 in 63.0 W/m2 CLR
19:23 87.7 °F 63.1 °F 29.95 in Calm   6.9 mph 44 % 0.00 in 65.0 W/m2 CLR
19:28 87.7 °F 63.1 °F 29.95 in West 0.6 mph 6.9 mph 44 % 0.00 in 65.0 W/m2 CLR
19:33 87.2 °F 63.3 °F 29.95 in Calm   3.5 mph 45 % 0.00 in 49.0 W/m2 CLR
19:38 87.0 °F 63.1 °F 29.95 in SW 1.2 mph 3.5 mph 45 % 0.00 in 49.0 W/m2 CLR
19:43 86.8 °F 63.5 °F 29.95 in Calm   3.5 mph 46 % 0.00 in 47.0 W/m2 CLR
19:48 86.6 °F 63.4 °F 29.95 in WNW 1.1 mph 3.5 mph 46 % 0.00 in 44.0 W/m2 CLR
19:53 86.5 °F 63.3 °F 29.95 in Calm   3.5 mph 46 % 0.00 in 39.0 W/m2 CLR
19:58 86.3 °F 63.7 °F 29.95 in Calm   3.5 mph 47 % 0.00 in 33.0 W/m2 CLR
20:03 86.0 °F 63.4 °F 29.96 in Calm   5.8 mph 47 % 0.00 in 28.0 W/m2 CLR
20:08 85.6 °F 63.7 °F 29.96 in West 0.7 mph 5.8 mph 48 % 0.00 in 21.0 W/m2 CLR
20:13 85.4 °F 63.5 °F 29.96 in Calm   5.8 mph 48 % 0.00 in 16.0 W/m2 CLR
20:18 85.2 °F 63.9 °F 29.96 in Calm   3.5 mph 49 % 0.00 in 14.0 W/m2 CLR
20:23 84.9 °F 63.6 °F 29.95 in Calm     49 % 0.00 in 11.0 W/m2 CLR
20:28 84.6 °F 63.9 °F 29.95 in Calm     50 % 0.00 in 7.0 W/m2 CLR
20:33 84.2 °F 63.5 °F 29.96 in Calm     50 % 0.00 in 0.0 W/m2 CLR
20:43 83.6 °F 64.1 °F 29.96 in Calm     52 % 0.00 in 0.0 W/m2 CLR
20:48 83.2 °F 64.3 °F 29.95 in Calm     53 % 0.00 in 0.0 W/m2 CLR
20:53 82.8 °F 64.5 °F 29.96 in Calm     54 % 0.00 in 0.0 W/m2 CLR
20:58 82.3 °F 64.5 °F 29.96 in Calm     55 % 0.00 in 0.0 W/m2 CLR
21:03 82.0 °F 64.8 °F 29.96 in Calm     56 % 0.00 in 0.0 W/m2 CLR
21:08 81.6 °F 64.4 °F 29.96 in Calm     56 % 0.00 in 0.0 W/m2 CLR
21:13 81.2 °F 65.0 °F 29.96 in Calm     58 % 0.00 in 0.0 W/m2 CLR
21:18 81.0 °F 65.3 °F 29.96 in Calm     59 % 0.00 in 0.0 W/m2 CLR
21:23 80.7 °F 65.5 °F 29.96 in Calm     60 % 0.00 in 0.0 W/m2 CLR
21:29 80.3 °F 65.6 °F 29.96 in Calm     61 % 0.00 in 0.0 W/m2 CLR
21:30 80.2 °F 65.5 °F 29.96 in Calm     61 % 0.00 in 0.0 W/m2 CLR
21:35 79.9 °F 65.7 °F 29.97 in Calm     62 % 0.00 in 0.0 W/m2 CLR
21:40 79.6 °F 65.4 °F 29.97 in Calm     62 % 0.00 in 0.0 W/m2 CLR
21:45 79.4 °F 65.2 °F 29.97 in Calm     62 % 0.00 in 0.0 W/m2 CLR
21:50 79.4 °F 65.7 °F 29.97 in Calm     63 % 0.00 in 0.0 W/m2 CLR
21:55 79.2 °F 65.5 °F 29.97 in Calm     63 % 0.00 in 0.0 W/m2 CLR
22:00 78.9 °F 65.2 °F 29.97 in Calm     63 % 0.00 in 0.0 W/m2 CLR
22:05 78.8 °F 65.6 °F 29.97 in Calm     64 % 0.00 in 0.0 W/m2 CLR
22:10 78.7 °F 65.5 °F 29.97 in Calm     64 % 0.00 in 0.0 W/m2 CLR
22:15 78.6 °F 65.4 °F 29.97 in Calm     64 % 0.00 in 0.0 W/m2 CLR
22:20 78.5 °F 65.3 °F 29.97 in Calm     64 % 0.00 in 0.0 W/m2 CLR
22:25 78.6 °F 65.4 °F 29.97 in Calm     64 % 0.00 in 0.0 W/m2 CLR
22:30 78.4 °F 65.2 °F 29.97 in Calm     64 % 0.00 in 0.0 W/m2 CLR
22:35 78.1 °F 65.4 °F 29.97 in Calm     65 % 0.00 in 0.0 W/m2 CLR
22:40 78.1 °F 64.9 °F 29.97 in Calm     64 % 0.00 in 0.0 W/m2 CLR
22:45 78.1 °F 64.9 °F 29.97 in Calm     64 % 0.00 in 0.0 W/m2 CLR
22:50 78.0 °F 65.3 °F 29.97 in Calm     65 % 0.00 in 0.0 W/m2 CLR
22:55 77.9 °F 65.2 °F 29.97 in Calm     65 % 0.00 in 0.0 W/m2 CLR
23:00 77.7 °F 65.0 °F 29.97 in Calm     65 % 0.00 in 0.0 W/m2 CLR
23:05 77.5 °F 64.8 °F 29.97 in Calm     65 % 0.00 in 0.0 W/m2 CLR
23:10 77.4 °F 65.1 °F 29.97 in Calm     66 % 0.00 in 0.0 W/m2 CLR
23:15 77.2 °F 65.0 °F 29.97 in Calm     66 % 0.00 in 0.0 W/m2 CLR
23:20 77.1 °F 64.9 °F 29.97 in Calm     66 % 0.00 in 0.0 W/m2 CLR
23:25 77.1 °F 65.3 °F 29.97 in Calm     67 % 0.00 in 0.0 W/m2 CLR
23:31 77.1 °F 64.9 °F 29.97 in Calm   1.2 mph 66 % 0.00 in 0.0 W/m2 CLR
23:36 77.2 °F 65.0 °F 29.97 in Calm   3.5 mph 66 % 0.00 in 0.0 W/m2 CLR
23:40 77.3 °F 65.1 °F 29.97 in Calm   3.5 mph 66 % 0.00 in 0.0 W/m2 CLR
23:45 77.3 °F 64.6 °F 29.97 in Calm     65 % 0.00 in 0.0 W/m2 CLR
23:51 77.3 °F 64.6 °F 29.97 in SW 0.9 mph 2.3 mph 65 % 0.00 in 0.0 W/m2 CLR
23:56 77.3 °F 64.6 °F 29.97 in Calm   3.5 mph 65 % 0.00 in 0.0 W/m2 CLR
Air Products Campus Weather
Compliments of Weather Underground - 3.5 mb